Flag for India Weather past 2 weeks in Kannauj, Uttar Pradesh, India

Now
86 °F

Partly cloudy.


Feels Like: 87 °F
Forecast: 70 / 84 °F
Wind: 5 mph from Northeast

Location: Lucknow / Amausi

Current Time: Mar 29, 2015 at 10:12:39 PM

Latest Report: Mar 29, 2015 at 9:00 PM


Visibility: 2 mi

Pressure: 29.77 "Hg

Humidity: 46%

Dew point: 63 °F

Location of KannaujLocation

Historic Weather in Kannauj — Graph

°F

Kannauj temperature yesterday

Maximum temperature yesterday: 99 °F (at 3:30 PM)
Minimum temperature yesterday: 68 °F (at 6:00 AM)
Average temperature yesterday: 83 °F

Past Weeks' High & Low Weather Summary

 TemperatureHumidityPressure
High100 °F (Mar 26, 2:30 PM)100% (Mar 16, 7:00 AM)30.12 "Hg (Mar 16, 7:00 AM)
Low57 °F (Mar 20, 6:00 AM)20% (Mar 28, 4:30 PM)29.53 "Hg (Mar 22, 3:00 PM)
Average78 °F60%29.91 "Hg
* Reported Mar 14 8:30 PM — Mar 29 8:30 PM, Kannauj, Weather by CustomWeather, © 2015

Note: Actual official high and low records may vary slightly from our data, if they occured in-between our weather recording intervals... More about our weather records

Advertising

Kannauj weather history for previous 24 hours

 ConditionsComfort  
Time TempWeatherWind HumidityBarometerVisibility
8:30 PM
Sun, Mar 29
86 °FPartly cloudy.5 mph43%29.74 "Hg2 mi
8:00 PM88 °FPartly cloudy.3 mph43%29.74 "Hg2 mi
7:30 PM90 °FPartly cloudy.2 mph38%29.74 "Hg3 mi
7:00 PM91 °FPartly cloudy.2 mph36%29.74 "Hg3 mi
6:30 PM93 °FBroken clouds.2 mph34%29.71 "Hg3 mi
6:00 PM95 °FBroken clouds.2 mph30%29.71 "Hg3 mi
5:30 PM97 °FBroken clouds.2 mph28%29.71 "Hg3 mi
5:00 PM97 °FBroken clouds.2 mph28%29.71 "Hg3 mi
4:30 PM99 °FBroken clouds.2 mph24%29.71 "Hg3 mi
4:00 PM99 °FBroken clouds.2 mph27%29.71 "Hg3 mi
3:30 PM99 °FBroken clouds.2 mph27%29.71 "Hg3 mi
2:30 PM99 °FBroken clouds.2 mph25%29.74 "Hg3 mi
2:00 PM99 °FBroken clouds.2 mph25%29.77 "Hg3 mi
1:30 PM95 °FBroken clouds.5 mph28%29.77 "Hg3 mi
12:30 PM95 °FBroken clouds.2 mph28%29.80 "Hg3 mi
12:00 PM93 °FBroken clouds.2 mph32%29.83 "Hg3 mi
11:30 AM93 °FBroken clouds.6 mph39%29.83 "Hg3 mi
10:30 AM90 °FBroken clouds.5 mph46%29.86 "Hg3 mi
9:00 AM81 °FPartly sunny.5 mph66%29.86 "Hg2 mi
8:30 AM77 °FPartly sunny.5 mph74%29.83 "Hg2 mi
8:00 AM73 °FPartly sunny.5 mph78%29.83 "Hg2 mi
7:30 AM72 °FHaze.No wind69%29.83 "Hg2 mi
7:00 AM70 °FHaze.No wind73%29.83 "Hg2 mi
6:30 AM68 °FHaze.No wind78%29.80 "Hg2 mi
6:00 AM68 °FHaze.No wind73%29.80 "Hg2 mi
5:30 AM66 °FHaze.No wind73%29.77 "Hg2 mi
5:00 AM66 °FHaze.No wind73%29.77 "Hg2 mi
4:00 AM64 °FHaze.No wind78%29.77 "Hg2 mi
2:00 AM66 °FHaze.No wind78%29.77 "Hg2 mi
1:00 AM70 °FHaze.No wind60%29.80 "Hg2 mi
12:00 AM72 °FHaze.No wind57%29.80 "Hg2 mi
Weather by CustomWeather, © 2015

See weather overviewHow to use our weather pages